Time,TemperatureF,DewpointF,PressureIn,WindDirection,WindDirectionDegrees,WindSpeedMPH,WindSpeedGustMPH,Humidity,HourlyPrecipIn,Conditions,Clouds,dailyrainin,SoftwareType,DateUTC
2013-08-02 00:14:00,64.3,63.0,29.86,SW,232,0.0,0.0,96,0.01,,,0.13,weatherlink.com 1.10,2013-08-02 04:14:00,
2013-08-02 00:29:00,64.6,64.0,29.86,SW,232,0.0,1.0,96,0.00,,,0.00,weatherlink.com 1.10,2013-08-02 04:29:00,
2013-08-02 00:44:00,64.7,63.0,29.85,South,186,0.0,0.0,95,0.00,,,0.00,weatherlink.com 1.10,2013-08-02 04:44:00,
2013-08-02 00:59:00,64.7,63.0,29.85,South,186,0.0,0.0,95,0.00,,,0.00,weatherlink.com 1.10,2013-08-02 04:59:00,
2013-08-02 01:14:00,64.8,63.0,29.84,South,186,0.0,0.0,95,0.00,,,0.00,weatherlink.com 1.10,2013-08-02 05:14:00,
2013-08-02 01:29:00,64.9,64.0,29.83,South,186,0.0,0.0,96,0.00,,,0.00,weatherlink.com 1.10,2013-08-02 05:29:00,
2013-08-02 01:44:00,65.1,64.0,29.82,South,186,0.0,0.0,95,0.00,,,0.00,weatherlink.com 1.10,2013-08-02 05:44:00,
2013-08-02 01:59:00,65.2,64.0,29.81,South,186,0.0,0.0,95,0.00,,,0.00,weatherlink.com 1.10,2013-08-02 05:59:00,
2013-08-02 02:14:00,65.2,64.0,29.80,South,186,0.0,0.0,95,0.00,,,0.00,weatherlink.com 1.10,2013-08-02 06:14:00,
2013-08-02 02:29:00,65.3,64.0,29.79,South,169,0.0,1.0,96,0.00,,,0.00,weatherlink.com 1.10,2013-08-02 06:29:00,
2013-08-02 02:44:00,65.4,64.0,29.79,SE,131,0.0,0.0,95,0.00,,,0.00,weatherlink.com 1.10,2013-08-02 06:44:00,
2013-08-02 02:59:00,65.2,64.0,29.79,SE,131,0.0,0.0,95,0.00,,,0.00,weatherlink.com 1.10,2013-08-02 06:59:00,
2013-08-02 03:14:00,65.2,64.0,29.79,SE,131,0.0,0.0,95,0.00,,,0.00,weatherlink.com 1.10,2013-08-02 07:14:00,
2013-08-02 03:29:00,65.4,64.0,29.79,SE,130,0.0,2.0,95,0.00,,,0.00,weatherlink.com 1.10,2013-08-02 07:29:00,
2013-08-02 03:45:00,65.8,64.0,29.79,SE,134,0.0,1.0,95,0.00,,,0.00,weatherlink.com 1.10,2013-08-02 07:45:00,
2013-08-02 03:59:00,66.5,65.0,29.79,SE,136,0.0,1.0,95,0.00,,,0.00,weatherlink.com 1.10,2013-08-02 07:59:00,
2013-08-02 04:14:00,67.0,66.0,29.78,ESE,107,1.0,4.0,95,0.00,,,0.00,weatherlink.com 1.10,2013-08-02 08:14:00,
2013-08-02 04:31:00,67.4,66.0,29.78,ESE,113,1.0,5.0,95,0.00,,,0.00,weatherlink.com 1.10,2013-08-02 08:31:00,
2013-08-02 04:45:00,67.6,66.0,29.78,ESE,108,0.0,5.0,95,0.00,,,0.00,weatherlink.com 1.10,2013-08-02 08:45:00,
2013-08-02 05:00:00,67.9,67.0,29.78,ESE,113,0.0,1.0,95,0.00,,,0.00,weatherlink.com 1.10,2013-08-02 09:00:00,
2013-08-02 05:15:00,68.0,67.0,29.79,WSW,241,0.0,1.0,95,0.00,,,0.00,weatherlink.com 1.10,2013-08-02 09:15:00,
2013-08-02 05:30:00,68.0,67.0,29.78,South,180,0.0,1.0,95,0.00,,,0.00,weatherlink.com 1.10,2013-08-02 09:30:00,
2013-08-02 05:45:00,68.1,67.0,29.78,South,191,0.0,1.0,95,0.02,,,0.02,weatherlink.com 1.10,2013-08-02 09:45:00,
2013-08-02 06:00:00,68.2,67.0,29.78,SW,221,0.0,2.0,95,0.02,,,0.02,weatherlink.com 1.10,2013-08-02 10:00:00,
2013-08-02 06:15:00,68.3,67.0,29.78,SW,219,0.0,6.0,96,0.04,,,0.04,weatherlink.com 1.10,2013-08-02 10:15:00,
2013-08-02 06:30:00,68.1,67.0,29.78,SSE,148,0.0,3.0,96,0.08,,,0.08,weatherlink.com 1.10,2013-08-02 10:30:00,
2013-08-02 06:45:00,68.0,67.0,29.78,SW,215,0.0,3.0,96,0.08,,,0.10,weatherlink.com 1.10,2013-08-02 10:45:00,
2013-08-02 07:00:00,67.8,67.0,29.79,SSW,203,1.0,4.0,96,0.08,,,0.10,weatherlink.com 1.10,2013-08-02 11:00:00,
2013-08-02 07:15:00,67.7,67.0,29.79,NE,52,0.0,2.0,96,0.06,,,0.10,weatherlink.com 1.10,2013-08-02 11:15:00,
2013-08-02 07:30:00,67.7,67.0,29.79,SW,220,0.0,2.0,96,0.05,,,0.13,weatherlink.com 1.10,2013-08-02 11:30:00,
2013-08-02 07:45:00,67.8,67.0,29.79,SW,219,0.0,1.0,97,0.22,,,0.32,weatherlink.com 1.10,2013-08-02 11:45:00,
2013-08-02 08:00:00,67.9,67.0,29.79,SSE,165,0.0,3.0,97,0.25,,,0.35,weatherlink.com 1.10,2013-08-02 12:00:00,
2013-08-02 08:15:00,68.2,67.0,29.79,ESE,121,1.0,2.0,97,0.27,,,0.37,weatherlink.com 1.10,2013-08-02 12:15:00,
2013-08-02 08:30:00,68.2,67.0,29.80,SSW,208,0.0,3.0,97,0.25,,,0.38,weatherlink.com 1.10,2013-08-02 12:30:00,
2013-08-02 08:45:00,68.4,68.0,29.80,SSW,193,0.0,4.0,97,0.08,,,0.40,weatherlink.com 1.10,2013-08-02 12:45:00,
2013-08-02 09:00:00,68.3,68.0,29.80,WSW,237,0.0,2.0,97,0.06,,,0.41,weatherlink.com 1.10,2013-08-02 13:00:00,
2013-08-02 09:15:00,68.9,68.0,29.80,SW,219,0.0,2.0,97,0.05,,,0.42,weatherlink.com 1.10,2013-08-02 13:15:00,
2013-08-02 09:30:00,69.4,69.0,29.80,SW,233,0.0,1.0,97,0.04,,,0.42,weatherlink.com 1.10,2013-08-02 13:30:00,
2013-08-02 09:45:00,69.8,69.0,29.80,WNW,283,0.0,3.0,97,0.02,,,0.42,weatherlink.com 1.10,2013-08-02 13:45:00,
2013-08-02 10:00:00,71.2,71.0,29.80,WNW,283,0.0,3.0,98,0.01,,,0.42,weatherlink.com 1.10,2013-08-02 14:00:00,
2013-08-02 10:15:00,71.5,70.0,29.80,WSW,252,0.0,2.0,96,0.00,,,0.42,weatherlink.com 1.10,2013-08-02 14:15:00,
2013-08-02 10:30:00,71.9,71.0,29.80,West,271,0.0,5.0,95,0.00,,,0.42,weatherlink.com 1.10,2013-08-02 14:30:00,
2013-08-02 10:45:00,73.2,71.0,29.80,WNW,283,2.0,5.0,91,0.00,,,0.42,weatherlink.com 1.10,2013-08-02 14:45:00,
2013-08-02 11:00:00,74.4,71.0,29.80,NNW,340,0.0,4.0,88,0.00,,,0.42,weatherlink.com 1.10,2013-08-02 15:00:00,
2013-08-02 11:15:00,75.1,71.0,29.80,NW,311,3.0,6.0,86,0.00,,,0.42,weatherlink.com 1.10,2013-08-02 15:15:00,
2013-08-02 11:30:00,75.9,71.0,29.80,WNW,283,0.0,5.0,85,0.00,,,0.42,weatherlink.com 1.10,2013-08-02 15:30:00,
2013-08-02 11:45:00,76.5,70.0,29.80,North,11,4.0,7.0,81,0.00,,,0.42,weatherlink.com 1.10,2013-08-02 15:45:00,
2013-08-02 12:00:00,76.8,71.0,29.80,West,279,0.0,7.0,81,0.00,,,0.42,weatherlink.com 1.10,2013-08-02 16:00:00,
2013-08-02 12:15:00,77.7,69.0,29.81,WSW,250,1.0,5.0,75,0.00,,,0.42,weatherlink.com 1.10,2013-08-02 16:15:00,
2013-08-02 12:30:00,78.6,69.0,29.80,WSW,250,5.0,7.0,73,0.00,,,0.42,weatherlink.com 1.10,2013-08-02 16:30:00,
2013-08-02 12:45:00,79.3,69.0,29.80,NNE,16,0.0,8.0,71,0.00,,,0.42,weatherlink.com 1.10,2013-08-02 16:45:00,
2013-08-02 13:00:00,79.8,68.0,29.80,NW,318,0.0,7.0,68,0.00,,,0.42,weatherlink.com 1.10,2013-08-02 17:00:00,
2013-08-02 13:15:00,80.9,69.0,29.80,WSW,238,1.0,5.0,67,0.00,,,0.42,weatherlink.com 1.10,2013-08-02 17:15:00,
2013-08-02 13:31:00,80.8,68.0,29.80,NW,305,0.0,7.0,65,0.00,,,0.42,weatherlink.com 1.10,2013-08-02 17:31:00,
2013-08-02 13:45:00,81.3,68.0,29.80,West,259,2.0,6.0,64,0.00,,,0.42,weatherlink.com 1.10,2013-08-02 17:45:00,
2013-08-02 14:00:00,81.2,67.0,29.79,WNW,286,5.0,8.0,63,0.00,,,0.42,weatherlink.com 1.10,2013-08-02 18:00:00,
2013-08-02 14:16:00,81.2,66.0,29.80,WNW,296,0.0,8.0,60,0.00,,,0.42,weatherlink.com 1.10,2013-08-02 18:16:00,
2013-08-02 14:31:00,81.4,66.0,29.80,East,98,0.0,7.0,59,0.00,,,0.42,weatherlink.com 1.10,2013-08-02 18:31:00,
2013-08-02 14:46:00,82.1,66.0,29.79,SW,236,4.0,5.0,59,0.00,,,0.42,weatherlink.com 1.10,2013-08-02 18:46:00,
2013-08-02 15:01:00,83.2,66.0,29.79,West,274,2.0,6.0,57,0.00,,,0.42,weatherlink.com 1.10,2013-08-02 19:01:00,
2013-08-02 15:16:00,81.7,65.0,29.79,NNW,335,2.0,5.0,58,0.00,,,0.42,weatherlink.com 1.10,2013-08-02 19:16:00,
2013-08-02 15:31:00,82.0,66.0,29.79,West,271,0.0,7.0,58,0.00,,,0.42,weatherlink.com 1.10,2013-08-02 19:31:00,
2013-08-02 15:46:00,82.7,65.0,29.80,WSW,252,5.0,8.0,56,0.00,,,0.42,weatherlink.com 1.10,2013-08-02 19:46:00,
2013-08-02 16:01:00,82.3,65.0,29.80,West,269,0.0,6.0,56,0.00,,,0.42,weatherlink.com 1.10,2013-08-02 20:01:00,
2013-08-02 16:16:00,82.8,64.0,29.80,West,260,2.0,8.0,54,0.00,,,0.42,weatherlink.com 1.10,2013-08-02 20:16:00,
2013-08-02 16:31:00,82.9,64.0,29.79,West,272,0.0,8.0,53,0.00,,,0.42,weatherlink.com 1.10,2013-08-02 20:31:00,
2013-08-02 16:48:00,83.3,64.0,29.79,West,269,0.0,11.0,52,0.00,,,0.42,weatherlink.com 1.10,2013-08-02 20:48:00,
2013-08-02 16:57:00,83.3,63.0,29.79,WSW,252,3.0,6.0,51,0.00,,,0.42,weatherlink.com 1.10,2013-08-02 20:57:00,
2013-08-02 17:17:00,83.2,68.0,29.80,West,276,0.0,5.0,61,0.00,,,0.42,weatherlink.com 1.10,2013-08-02 21:17:00,
2013-08-02 17:22:00,83.1,69.0,29.80,WSW,245,1.0,5.0,62,0.00,,,0.42,weatherlink.com 1.10,2013-08-02 21:22:00,
2013-08-02 17:37:00,79.9,68.0,29.80,WNW,286,0.0,7.0,67,0.00,,,0.42,weatherlink.com 1.10,2013-08-02 21:37:00,
2013-08-02 17:52:00,78.9,69.0,29.81,West,273,1.0,5.0,71,0.00,,,0.42,weatherlink.com 1.10,2013-08-02 21:52:00,
2013-08-02 18:07:00,78.6,68.0,29.80,West,281,0.0,6.0,70,0.00,,,0.42,weatherlink.com 1.10,2013-08-02 22:07:00,
2013-08-02 18:22:00,78.2,68.0,29.81,NW,307,0.0,3.0,71,0.00,,,0.42,weatherlink.com 1.10,2013-08-02 22:22:00,
2013-08-02 18:37:00,77.5,67.0,29.81,SW,222,0.0,5.0,71,0.00,,,0.42,weatherlink.com 1.10,2013-08-02 22:37:00,
2013-08-02 18:52:00,76.8,67.0,29.82,SW,233,1.0,4.0,72,0.00,,,0.42,weatherlink.com 1.10,2013-08-02 22:52:00,
2013-08-02 19:07:00,76.0,67.0,29.82,SW,226,2.0,3.0,74,0.00,,,0.42,weatherlink.com 1.10,2013-08-02 23:07:00,
2013-08-02 19:22:00,75.2,67.0,29.83,SSW,193,0.0,3.0,75,0.00,,,0.42,weatherlink.com 1.10,2013-08-02 23:22:00,
2013-08-02 19:37:00,74.6,67.0,29.83,WNW,283,0.0,4.0,76,0.00,,,0.42,weatherlink.com 1.10,2013-08-02 23:37:00,
2013-08-02 19:52:00,73.9,66.0,29.83,SW,230,0.0,4.0,76,0.00,,,0.42,weatherlink.com 1.10,2013-08-02 23:52:00,
2013-08-02 20:07:00,73.3,66.0,29.84,East,87,0.0,1.0,77,0.00,,,0.42,weatherlink.com 1.10,2013-08-03 00:07:00,
2013-08-02 20:22:00,72.7,66.0,29.84,SSW,209,0.0,1.0,79,0.00,,,0.42,weatherlink.com 1.10,2013-08-03 00:22:00,
2013-08-02 20:37:00,72.2,66.0,29.84,SSE,167,0.0,1.0,82,0.00,,,0.42,weatherlink.com 1.10,2013-08-03 00:37:00,
2013-08-02 20:52:00,71.8,66.0,29.85,West,278,1.0,3.0,83,0.00,,,0.42,weatherlink.com 1.10,2013-08-03 00:52:00,
2013-08-02 21:07:00,71.5,67.0,29.85,WSW,250,0.0,2.0,84,0.00,,,0.42,weatherlink.com 1.10,2013-08-03 01:07:00,
2013-08-02 21:22:00,71.1,66.0,29.86,SSW,206,0.0,2.0,85,0.00,,,0.42,weatherlink.com 1.10,2013-08-03 01:22:00,
2013-08-02 21:37:00,70.9,67.0,29.86,West,265,0.0,3.0,86,0.00,,,0.42,weatherlink.com 1.10,2013-08-03 01:37:00,
2013-08-02 21:52:00,70.8,67.0,29.86,WSW,244,0.0,4.0,86,0.00,,,0.42,weatherlink.com 1.10,2013-08-03 01:52:00,
2013-08-02 22:07:00,70.8,67.0,29.87,WSW,249,0.0,2.0,86,0.00,,,0.42,weatherlink.com 1.10,2013-08-03 02:07:00,
2013-08-02 22:22:00,70.5,67.0,29.87,West,271,0.0,1.0,87,0.00,,,0.42,weatherlink.com 1.10,2013-08-03 02:22:00,
2013-08-02 22:37:00,70.3,67.0,29.87,West,267,0.0,3.0,88,0.00,,,0.42,weatherlink.com 1.10,2013-08-03 02:37:00,
2013-08-02 22:52:00,70.0,66.0,29.87,West,269,0.0,1.0,88,0.00,,,0.42,weatherlink.com 1.10,2013-08-03 02:52:00,
2013-08-02 23:07:00,69.7,66.0,29.87,West,270,0.0,1.0,89,0.00,,,0.42,weatherlink.com 1.10,2013-08-03 03:07:00,
2013-08-02 23:22:00,69.4,66.0,29.86,West,270,0.0,1.0,90,0.00,,,0.42,weatherlink.com 1.10,2013-08-03 03:22:00,
2013-08-02 23:37:00,69.2,67.0,29.87,West,269,0.0,1.0,91,0.00,,,0.42,weatherlink.com 1.10,2013-08-03 03:37:00,
2013-08-02 23:52:00,69.0,66.0,29.87,West,269,0.0,0.0,91,0.00,,,0.42,weatherlink.com 1.10,2013-08-03 03:52:00,